カタログに戻る

FENGYUN 1C DEB

運用中SSO
NORAD 40691·DEBRIS·🇨🇳 China

打ち上げ May 10, 1999 から Taiyuan Satellite Launch Center

Loading…

次のパス (今後24時間)

TLE

最新Source: Space-Track

元期: Sep 13, 2026, 07:23 UTC

1 40691U 99025EWX 26256.30782875  .00000104  00000-0  11217-3 0  9996
2 40691  99.0284 285.9282 0127678 285.5437  73.1657 13.90063343592507

AllMySatでFENGYUN 1C DEBをリアルタイム追跡

Download on the App Store